EZY8605 EHAM-ENBR

Flight info

Callsign EZY8605
Flight time 1h 21m
Altitude 39000
Route ANDIK N873 REXMI/N0450F380 DCT KARLI DCT ALUVA
Aircraft A320/M-SDE3FGHIRWY/LB1

Departure

Time 2026-04-27 13:41
Airport Amsterdam Airport Schiphol (EHAM)

Arrival

Time 2026-04-27 15:03
Airport Bergen Airport, Flesland (ENBR)
Time Latitude Longitude Altitude Speed Heading
2026-04-27 13:11 52.30912 4.76706 -12 ft 0 kts 178°
2026-04-27 13:27 52.30926 4.76706 -2 ft 2 kts 178°
2026-04-27 13:27 52.30944 4.76709 -2 ft 2 kts 198°
2026-04-27 13:28 52.30960 4.76719 -2 ft 2 kts 209°
2026-04-27 13:28 52.30975 4.76732 -2 ft 3 kts 188°
2026-04-27 13:28 52.30993 4.76731 -2 ft 3 kts 152°
2026-04-27 13:28 52.31005 4.76716 -2 ft 0 kts 123°
2026-04-27 13:32 52.31001 4.76739 -2 ft 7 kts 101°
2026-04-27 13:32 52.31056 4.76837 -2 ft 18 kts 33°
2026-04-27 13:32 52.31187 4.76976 -2 ft 26 kts 31°
2026-04-27 13:33 52.31343 4.77141 -2 ft 22 kts 36°
2026-04-27 13:33 52.31455 4.77173 -2 ft 15 kts 330°
2026-04-27 13:33 52.31484 4.77018 -2 ft 17 kts 267°
2026-04-27 13:33 52.31476 4.76800 -2 ft 22 kts 267°
2026-04-27 13:34 52.31466 4.76518 -2 ft 27 kts 267°
2026-04-27 13:34 52.31454 4.76181 -2 ft 32 kts 266°
2026-04-27 13:34 52.31442 4.75803 -2 ft 35 kts 267°
2026-04-27 13:34 52.31425 4.75393 -2 ft 37 kts 265°
2026-04-27 13:35 52.31410 4.74967 -2 ft 38 kts 268°
2026-04-27 13:35 52.31399 4.74594 -2 ft 27 kts 268°
2026-04-27 13:35 52.31391 4.74293 -2 ft 19 kts 267°
2026-04-27 13:35 52.31444 4.74143 -2 ft 15 kts 14°
2026-04-27 13:36 52.31564 4.74154 -1 ft 19 kts
2026-04-27 13:36 52.31712 4.74167 -1 ft 24 kts
2026-04-27 13:36 52.31898 4.74184 -5 ft 29 kts
2026-04-27 13:36 52.32022 4.74150 -5 ft 13 kts 301°
2026-04-27 13:37 52.32041 4.73983 -4 ft 17 kts 276°
2026-04-27 13:37 52.32047 4.73779 0 ft 20 kts 274°
2026-04-27 13:37 52.32057 4.73529 1 ft 25 kts 274°
2026-04-27 13:37 52.32138 4.73284 0 ft 27 kts 319°
2026-04-27 13:38 52.32292 4.73069 -4 ft 31 kts 319°
2026-04-27 13:38 52.32460 4.72833 -3 ft 33 kts 319°
2026-04-27 13:38 52.32635 4.72580 -1 ft 34 kts 318°
2026-04-27 13:38 52.32802 4.72291 0 ft 34 kts 310°
2026-04-27 13:39 52.32955 4.72000 -3 ft 33 kts 308°
2026-04-27 13:39 52.33107 4.71725 -2 ft 26 kts 310°
2026-04-27 13:39 52.33141 4.71497 -1 ft 20 kts 272°
2026-04-27 13:39 52.33180 4.71328 -1 ft 13 kts 309°
2026-04-27 13:40 52.33250 4.71201 -3 ft 18 kts 311°
2026-04-27 13:40 52.33342 4.71036 -3 ft 20 kts 313°
2026-04-27 13:40 52.33473 4.70939 -3 ft 22 kts 354°
2026-04-27 13:40 52.33713 4.70962 1 ft 63 kts
2026-04-27 13:41 52.34393 4.71029 -7 ft 129 kts
2026-04-27 13:41 52.35435 4.71141 234 ft 160 kts
2026-04-27 13:41 52.36549 4.71253 1080 ft 160 kts
2026-04-27 13:41 52.37673 4.71353 1907 ft 167 kts
2026-04-27 13:42 52.38906 4.71463 2430 ft 189 kts
2026-04-27 13:42 52.40303 4.71592 2829 ft 214 kts
2026-04-27 13:42 52.41878 4.71736 3389 ft 239 kts
2026-04-27 13:42 52.43600 4.71890 4126 ft 254 kts
2026-04-27 13:43 52.45383 4.72055 5171 ft 259 kts
2026-04-27 13:43 52.47190 4.72226 6211 ft 262 kts
2026-04-27 13:43 52.49018 4.72402 7197 ft 265 kts
2026-04-27 13:43 52.50875 4.72588 8149 ft 271 kts
2026-04-27 13:44 52.52720 4.73339 9015 ft 279 kts 24°
2026-04-27 13:44 52.54332 4.75192 9900 ft 289 kts 45°
2026-04-27 13:44 52.55451 4.77974 10652 ft 301 kts 66°
2026-04-27 13:44 52.56190 4.81340 10992 ft 325 kts 65°
2026-04-27 13:45 52.57525 4.84424 11432 ft 340 kts 45°
2026-04-27 13:45 52.59179 4.87258 12203 ft 346 kts 45°
2026-04-27 13:45 52.60847 4.90141 13023 ft 350 kts 45°
2026-04-27 13:45 52.62529 4.93082 13854 ft 355 kts 45°
2026-04-27 13:46 52.64221 4.96068 14589 ft 359 kts 45°
2026-04-27 13:46 52.65933 4.99108 15290 ft 364 kts 45°
2026-04-27 13:46 52.67640 5.02155 15974 ft 368 kts 45°
2026-04-27 13:46 52.69386 5.05274 16672 ft 373 kts 45°
2026-04-27 13:47 52.71153 5.08433 17360 ft 377 kts 45°
2026-04-27 13:47 52.72944 5.11633 18052 ft 382 kts 45°
2026-04-27 13:47 52.74755 5.14872 18711 ft 386 kts 45°
2026-04-27 13:47 52.76588 5.18149 19294 ft 390 kts 45°
2026-04-27 13:48 52.78437 5.21452 19881 ft 394 kts 45°
2026-04-27 13:48 52.80330 5.24747 20460 ft 396 kts 40°
2026-04-27 13:48 52.82594 5.27315 21020 ft 395 kts 22°
2026-04-27 13:48 52.85196 5.28638 21562 ft 392 kts
2026-04-27 13:49 52.87917 5.28886 22125 ft 392 kts 358°
2026-04-27 13:49 52.90654 5.29013 22691 ft 395 kts 358°
2026-04-27 13:49 52.93413 5.29133 23249 ft 398 kts 358°
2026-04-27 13:49 52.96199 5.29247 23795 ft 402 kts 358°
2026-04-27 13:50 52.99003 5.29367 24257 ft 405 kts 358°
2026-04-27 13:50 53.01835 5.29496 24704 ft 408 kts 358°
2026-04-27 13:50 53.04683 5.29634 25147 ft 411 kts 357°
2026-04-27 13:50 53.07552 5.29780 25577 ft 414 kts 357°
2026-04-27 13:51 53.10438 5.29927 26008 ft 417 kts 357°
2026-04-27 13:51 53.13347 5.30075 26436 ft 420 kts 357°
2026-04-27 13:51 53.16276 5.30225 26856 ft 422 kts 357°
2026-04-27 13:51 53.19227 5.30372 27264 ft 425 kts 357°
2026-04-27 13:52 53.22195 5.30516 27672 ft 428 kts 357°
2026-04-27 13:52 53.25181 5.30658 28073 ft 431 kts 357°
2026-04-27 13:52 53.28189 5.30802 28485 ft 434 kts 357°
2026-04-27 13:52 53.31218 5.30949 28888 ft 437 kts 357°
2026-04-27 13:53 53.37336 5.31252 29652 ft 443 kts 356°
2026-04-27 13:53 53.40424 5.31401 30029 ft 445 kts 356°
2026-04-27 13:53 53.43529 5.31553 30386 ft 448 kts 356°
2026-04-27 13:54 53.46657 5.31705 30691 ft 450 kts 356°
2026-04-27 13:54 53.49793 5.31858 30990 ft 453 kts 356°
2026-04-27 13:54 53.52955 5.32014 31287 ft 455 kts 356°
2026-04-27 13:54 53.56130 5.32169 31587 ft 457 kts 356°
2026-04-27 13:55 53.59314 5.32326 31898 ft 458 kts 356°
2026-04-27 13:55 53.62499 5.32488 32317 ft 457 kts 356°
2026-04-27 13:55 53.65636 5.32649 32725 ft 456 kts 356°
2026-04-27 13:55 53.68804 5.32809 33137 ft 456 kts 356°
2026-04-27 13:56 53.71975 5.32965 33546 ft 455 kts 356°
2026-04-27 13:56 53.75136 5.33121 33953 ft 454 kts 356°
2026-04-27 13:56 53.78293 5.33279 34359 ft 454 kts 356°
2026-04-27 13:56 53.81451 5.33439 34699 ft 453 kts 357°
2026-04-27 13:57 53.84601 5.33603 35042 ft 452 kts 357°
2026-04-27 13:57 53.87738 5.33766 35385 ft 451 kts 357°
2026-04-27 13:57 53.90880 5.33924 35716 ft 451 kts 357°
2026-04-27 13:57 53.94009 5.34079 36039 ft 450 kts 357°
2026-04-27 13:58 53.97136 5.34231 36353 ft 449 kts 357°
2026-04-27 13:58 54.00260 5.34381 36662 ft 448 kts 358°
2026-04-27 13:58 54.03377 5.34536 36960 ft 448 kts 358°
2026-04-27 13:58 54.06486 5.34697 37260 ft 447 kts 358°
2026-04-27 13:59 54.09594 5.34861 37551 ft 446 kts 358°
2026-04-27 13:59 54.12697 5.35025 37845 ft 446 kts 358°
2026-04-27 13:59 54.15794 5.35186 38122 ft 445 kts 358°
2026-04-27 13:59 54.18892 5.35342 38329 ft 445 kts 358°
2026-04-27 14:00 54.21984 5.35493 38362 ft 445 kts 358°
2026-04-27 14:00 54.28169 5.35801 38358 ft 444 kts 358°
2026-04-27 14:01 54.34352 5.36121 38356 ft 444 kts 358°
2026-04-27 14:01 54.40533 5.36450 38357 ft 444 kts 358°
2026-04-27 14:02 54.46715 5.36768 38357 ft 444 kts 358°
2026-04-27 14:02 54.52899 5.37078 38361 ft 445 kts 358°
2026-04-27 14:03 54.59083 5.37390 38365 ft 445 kts 358°
2026-04-27 14:03 54.65274 5.37709 38366 ft 445 kts 359°
2026-04-27 14:04 54.71462 5.38043 38367 ft 445 kts 359°
2026-04-27 14:04 54.77651 5.38369 38363 ft 445 kts 359°
2026-04-27 14:05 54.83842 5.38694 38386 ft 445 kts 359°
2026-04-27 14:05 54.90037 5.39020 38368 ft 445 kts 359°
2026-04-27 14:06 54.96231 5.39347 38370 ft 445 kts 359°
2026-04-27 14:06 55.02428 5.39670 38374 ft 445 kts 359°
2026-04-27 14:07 55.08620 5.40008 38376 ft 445 kts 359°
2026-04-27 14:07 55.14819 5.40351 38366 ft 445 kts 359°
2026-04-27 14:08 55.21016 5.40693 38372 ft 445 kts 359°
2026-04-27 14:08 55.27163 5.41012 38368 ft 445 kts 359°
2026-04-27 14:09 55.33348 5.41332 38369 ft 445 kts 359°
2026-04-27 14:09 55.39540 5.41674 38371 ft 445 kts 359°
2026-04-27 14:10 55.45731 5.42012 38370 ft 445 kts 359°
2026-04-27 14:10 55.51916 5.42344 38369 ft 445 kts 359°
2026-04-27 14:11 55.58103 5.42685 38368 ft 445 kts 359°
2026-04-27 14:11 55.64290 5.43029 38374 ft 445 kts 359°
2026-04-27 14:12 55.70471 5.43366 38370 ft 444 kts 359°
2026-04-27 14:12 55.76658 5.43698 38372 ft 444 kts 360°
2026-04-27 14:13 55.82837 5.44040 38367 ft 444 kts 360°
2026-04-27 14:13 55.87971 5.44329 38373 ft 444 kts 360°
2026-04-27 14:14 55.94150 5.44684 38371 ft 444 kts 360°
2026-04-27 14:14 56.00330 5.45024 38370 ft 444 kts 360°
2026-04-27 14:15 56.06506 5.45361 38369 ft 444 kts 360°
2026-04-27 14:15 56.12677 5.45719 38374 ft 444 kts
2026-04-27 14:16 56.18845 5.46074 38371 ft 443 kts
2026-04-27 14:16 56.25012 5.46420 38371 ft 443 kts
2026-04-27 14:17 56.31136 5.46742 38366 ft 443 kts
2026-04-27 14:17 56.37299 5.47091 38368 ft 443 kts
2026-04-27 14:18 56.43460 5.47464 38369 ft 443 kts
2026-04-27 14:18 56.49616 5.47818 38371 ft 442 kts
2026-04-27 14:19 56.55773 5.48159 38366 ft 442 kts
2026-04-27 14:19 56.61926 5.48501 38369 ft 442 kts
2026-04-27 14:20 56.68087 5.48861 38368 ft 442 kts
2026-04-27 14:20 56.74237 5.49230 38371 ft 442 kts
2026-04-27 14:21 56.80389 5.49592 38369 ft 442 kts
2026-04-27 14:21 56.86538 5.49958 38374 ft 442 kts
2026-04-27 14:22 56.92637 5.50301 38375 ft 442 kts
2026-04-27 14:22 56.98815 5.50665 38373 ft 441 kts 359°
2026-04-27 14:23 57.04880 5.49724 38373 ft 440 kts 352°
2026-04-27 14:23 57.10962 5.48437 38374 ft 440 kts 352°
2026-04-27 14:24 57.17039 5.47142 38377 ft 440 kts 353°
2026-04-27 14:24 57.23127 5.45849 38377 ft 440 kts 353°
2026-04-27 14:25 57.29206 5.44567 38379 ft 440 kts 353°
2026-04-27 14:25 57.35284 5.43267 38381 ft 440 kts 353°
2026-04-27 14:26 57.41359 5.41942 38383 ft 439 kts 352°
2026-04-27 14:26 57.47439 5.40625 38384 ft 439 kts 353°
2026-04-27 14:27 57.53510 5.39313 38385 ft 439 kts 353°
2026-04-27 14:27 57.59570 5.38000 38386 ft 439 kts 353°
2026-04-27 14:28 57.65632 5.36690 38389 ft 438 kts 353°
2026-04-27 14:28 57.71680 5.35373 38394 ft 437 kts 353°
2026-04-27 14:29 57.77728 5.34051 38394 ft 437 kts 353°
2026-04-27 14:29 57.83773 5.32708 38394 ft 437 kts 353°
2026-04-27 14:30 57.89811 5.31375 38396 ft 437 kts 353°
2026-04-27 14:30 57.95841 5.30050 37997 ft 436 kts 353°
2026-04-27 14:30 57.98851 5.29384 37271 ft 436 kts 353°
2026-04-27 14:31 58.01870 5.28713 36547 ft 437 kts 353°
2026-04-27 14:31 58.04890 5.28045 35820 ft 438 kts 353°
2026-04-27 14:31 58.07888 5.27383 35097 ft 439 kts 353°
2026-04-27 14:31 58.10927 5.26707 34392 ft 441 kts 353°
2026-04-27 14:32 58.14012 5.26018 33567 ft 441 kts 353°
2026-04-27 14:32 58.17001 5.25346 32986 ft 436 kts 353°
2026-04-27 14:32 58.19998 5.24667 32396 ft 431 kts 353°
2026-04-27 14:32 58.22959 5.23998 31821 ft 426 kts 353°
2026-04-27 14:33 58.25891 5.23333 31263 ft 422 kts 353°
2026-04-27 14:33 58.28803 5.22671 30714 ft 419 kts 353°
2026-04-27 14:33 58.31679 5.22018 30111 ft 415 kts 353°
2026-04-27 14:33 58.34541 5.21371 29489 ft 411 kts 353°
2026-04-27 14:34 58.37366 5.20736 28896 ft 407 kts 353°
2026-04-27 14:34 58.40166 5.20108 28319 ft 403 kts 353°
2026-04-27 14:34 58.42935 5.19483 27746 ft 399 kts 353°
2026-04-27 14:34 58.45678 5.18857 27172 ft 395 kts 353°
2026-04-27 14:35 58.48400 5.18229 26604 ft 392 kts 353°
2026-04-27 14:35 58.51090 5.17606 26051 ft 388 kts 353°
2026-04-27 14:35 58.53759 5.16991 25513 ft 385 kts 353°
2026-04-27 14:35 58.56401 5.16389 24984 ft 381 kts 353°
2026-04-27 14:36 58.59026 5.15788 24473 ft 378 kts 353°
2026-04-27 14:36 58.61622 5.15190 23970 ft 374 kts 353°
2026-04-27 14:36 58.64194 5.14591 23388 ft 371 kts 353°
2026-04-27 14:36 58.66749 5.13997 22826 ft 368 kts 353°
2026-04-27 14:37 58.69282 5.13411 22301 ft 365 kts 353°
2026-04-27 14:37 58.71790 5.12836 21794 ft 362 kts 353°
2026-04-27 14:37 58.74280 5.12263 21294 ft 359 kts 353°
2026-04-27 14:37 58.76750 5.11691 20808 ft 356 kts 353°
2026-04-27 14:38 58.79202 5.11123 20335 ft 353 kts 353°
2026-04-27 14:38 58.81633 5.10555 19876 ft 350 kts 353°
2026-04-27 14:38 58.84044 5.09993 19426 ft 348 kts 353°
2026-04-27 14:38 58.86439 5.09434 18992 ft 345 kts 353°
2026-04-27 14:39 58.88784 5.08886 18550 ft 343 kts 353°
2026-04-27 14:39 58.91140 5.08337 18073 ft 340 kts 353°
2026-04-27 14:39 58.93482 5.07791 17582 ft 338 kts 353°
2026-04-27 14:39 58.95805 5.07248 17109 ft 335 kts 353°
2026-04-27 14:40 58.98116 5.06706 16644 ft 333 kts 353°
2026-04-27 14:40 59.00411 5.06197 16187 ft 331 kts 356°
2026-04-27 14:40 59.02682 5.06602 15755 ft 328 kts 15°
2026-04-27 14:40 59.04734 5.08457 15325 ft 326 kts 35°
2026-04-27 14:41 59.06322 5.11564 14905 ft 326 kts 55°
2026-04-27 14:41 59.07477 5.15342 14456 ft 324 kts 54°
2026-04-27 14:41 59.09113 5.18244 14037 ft 319 kts 26°
2026-04-27 14:41 59.11246 5.19248 13572 ft 317 kts
2026-04-27 14:42 59.13423 5.18676 13092 ft 317 kts 344°
2026-04-27 14:42 59.15469 5.17061 12624 ft 317 kts 336°
2026-04-27 14:42 59.17480 5.15342 12170 ft 315 kts 338°
2026-04-27 14:42 59.19490 5.13665 11731 ft 313 kts 338°
2026-04-27 14:43 59.21490 5.11999 11298 ft 311 kts 338°
2026-04-27 14:43 59.23475 5.10338 10874 ft 310 kts 338°
2026-04-27 14:43 59.25444 5.08673 10460 ft 308 kts 337°
2026-04-27 14:43 59.27380 5.07023 10255 ft 298 kts 337°
2026-04-27 14:44 59.29248 5.05423 10112 ft 287 kts 337°
2026-04-27 14:44 59.31047 5.03880 9864 ft 280 kts 337°
2026-04-27 14:44 59.32823 5.02352 9499 ft 277 kts 337°
2026-04-27 14:44 59.34583 5.00831 9404 ft 276 kts 337°
2026-04-27 14:45 59.36344 4.99311 9409 ft 277 kts 337°
2026-04-27 14:45 59.38126 4.97873 9408 ft 277 kts 342°
2026-04-27 14:45 59.39986 4.96917 9414 ft 277 kts 350°
2026-04-27 14:45 59.41896 4.96488 9412 ft 276 kts 356°
2026-04-27 14:46 59.43812 4.96194 9413 ft 276 kts 356°
2026-04-27 14:46 59.45728 4.95888 9415 ft 276 kts 355°
2026-04-27 14:46 59.47620 4.95574 9414 ft 276 kts 355°
2026-04-27 14:46 59.49535 4.95251 9415 ft 276 kts 355°
2026-04-27 14:47 59.51450 4.94934 9418 ft 276 kts 355°
2026-04-27 14:47 59.53363 4.94620 9417 ft 276 kts 355°
2026-04-27 14:47 59.55282 4.94305 9421 ft 276 kts 355°
2026-04-27 14:47 59.57193 4.93995 9426 ft 276 kts 355°
2026-04-27 14:48 59.59106 4.93686 9422 ft 276 kts 355°
2026-04-27 14:48 59.62928 4.92857 9423 ft 276 kts 348°
2026-04-27 14:48 59.64770 4.91792 9423 ft 276 kts 342°
2026-04-27 14:49 59.66599 4.90634 9423 ft 276 kts 343°
2026-04-27 14:49 59.68431 4.89480 9421 ft 276 kts 343°
2026-04-27 14:49 59.70260 4.88330 9424 ft 276 kts 343°
2026-04-27 14:49 59.72093 4.87179 9425 ft 276 kts 343°
2026-04-27 14:50 59.73920 4.86029 9421 ft 276 kts 343°
2026-04-27 14:50 59.75749 4.84873 9424 ft 276 kts 343°
2026-04-27 14:50 59.77582 4.83712 9424 ft 276 kts 342°
2026-04-27 14:50 59.79411 4.82551 9423 ft 276 kts 342°
2026-04-27 14:51 59.81240 4.81384 9425 ft 276 kts 342°
2026-04-27 14:51 59.83065 4.80216 9426 ft 276 kts 342°
2026-04-27 14:51 59.84894 4.79046 9363 ft 275 kts 342°
2026-04-27 14:51 59.86095 4.78279 9117 ft 273 kts 342°
2026-04-27 14:52 59.88485 4.76758 8570 ft 271 kts 342°
2026-04-27 14:52 59.90277 4.75616 8166 ft 270 kts 342°
2026-04-27 14:52 59.92077 4.74603 7769 ft 268 kts 352°
2026-04-27 14:52 59.93916 4.74735 7382 ft 265 kts 13°
2026-04-27 14:53 59.95594 4.76205 6987 ft 265 kts 34°
2026-04-27 14:53 59.96867 4.78828 6561 ft 265 kts 57°
2026-04-27 14:53 59.97797 4.81995 6111 ft 264 kts 59°
2026-04-27 14:53 59.98714 4.85171 5666 ft 263 kts 59°
2026-04-27 14:54 59.99624 4.88341 5240 ft 262 kts 60°
2026-04-27 14:54 60.00526 4.91493 4861 ft 258 kts 60°
2026-04-27 14:54 60.01393 4.94529 4738 ft 245 kts 60°
2026-04-27 14:54 60.02218 4.97422 4605 ft 234 kts 60°
2026-04-27 14:55 60.03004 5.00181 4462 ft 223 kts 60°
2026-04-27 14:55 60.03755 5.02824 4335 ft 214 kts 61°
2026-04-27 14:55 60.04478 5.05373 4198 ft 208 kts 61°
2026-04-27 14:55 60.05181 5.07851 4081 ft 201 kts 61°
2026-04-27 14:56 60.05848 5.10202 3966 ft 188 kts 61°
2026-04-27 14:56 60.06481 5.12440 3699 ft 184 kts 62°
2026-04-27 14:56 60.07114 5.14688 3343 ft 186 kts 62°
2026-04-27 14:56 60.07749 5.16946 3025 ft 186 kts 61°
2026-04-27 14:57 60.08379 5.19188 3011 ft 186 kts 61°
2026-04-27 14:57 60.09013 5.21444 3010 ft 186 kts 61°
2026-04-27 14:57 60.09654 5.23711 3007 ft 186 kts 60°
2026-04-27 14:57 60.10452 5.25650 2958 ft 174 kts 40°
2026-04-27 14:58 60.11442 5.26823 2818 ft 163 kts 20°
2026-04-27 14:58 60.12516 5.27275 2684 ft 154 kts
2026-04-27 14:58 60.13548 5.27083 2590 ft 146 kts 349°
2026-04-27 14:58 60.14522 5.26762 2531 ft 139 kts 349°
2026-04-27 14:59 60.15469 5.26448 2515 ft 137 kts 348°
2026-04-27 14:59 60.16407 5.26136 2491 ft 137 kts 349°
2026-04-27 14:59 60.17343 5.25825 2376 ft 136 kts 348°
2026-04-27 14:59 60.18274 5.25514 2221 ft 135 kts 348°
2026-04-27 15:00 60.19198 5.25203 2048 ft 134 kts 348°
2026-04-27 15:00 60.19807 5.25001 1925 ft 134 kts 347°
2026-04-27 15:00 60.20722 5.24693 1739 ft 133 kts 347°
2026-04-27 15:00 60.21632 5.24386 1560 ft 132 kts 347°
2026-04-27 15:01 60.22532 5.24089 1347 ft 130 kts 347°
2026-04-27 15:01 60.23419 5.23792 1188 ft 129 kts 347°
2026-04-27 15:01 60.24301 5.23503 1025 ft 128 kts 347°
2026-04-27 15:01 60.25178 5.23206 812 ft 128 kts 348°
2026-04-27 15:02 60.26048 5.22923 625 ft 125 kts 347°
2026-04-27 15:02 60.26906 5.22635 480 ft 125 kts 346°
2026-04-27 15:02 60.27760 5.22341 314 ft 125 kts 348°
2026-04-27 15:02 60.28609 5.22062 164 ft 120 kts 349°
2026-04-27 15:03 60.29153 5.21879 165 ft 38 kts 347°
2026-04-27 15:03 60.29326 5.21832 165 ft 14 kts
2026-04-27 15:03 60.29383 5.21925 166 ft 0 kts 72°
2026-04-27 15:04 60.29383 5.21926 166 ft 0 kts 72°
2026-04-27 15:04 60.29384 5.21930 166 ft 0 kts 72°
2026-04-27 15:04 60.29385 5.21938 166 ft 1 kts 72°
2026-04-27 15:04 60.29388 5.21958 166 ft 6 kts 75°
2026-04-27 15:05 60.29388 5.22090 166 ft 12 kts 139°
2026-04-27 15:05 60.29290 5.22155 165 ft 18 kts 170°
2026-04-27 15:05 60.29146 5.22203 164 ft 24 kts 167°
2026-04-27 15:05 60.28989 5.22254 162 ft 15 kts 174°
2026-04-27 15:06 60.28936 5.22356 162 ft 10 kts 109°
2026-04-27 15:06 60.28935 5.22482 162 ft 9 kts 82°